Accueil
METAR-TAF:

METAR-TAF

Aéroports :

Aéroport de Londres-City

Londres, Angleterre

latitude: 51-30N, longitude: 000-03E, altitude: 5 m

Observation

Le bulletin a été fait il y a 37 minutes, à 22:20 UTC
Vent 10 kt de nord/nord-ouest, variant entre ouest et nord
Température 18°C
Humidité 68%
Pression 1020 hPa
Visibilité 10 km ou plus
Nuages fragmentés à une hauteur de 2600 ft
Nuages fragmentés à une hauteur de 3300 ft
Nuages fragmentés à une hauteur de 4200 ft

METAR: EGLC 202220Z AUTO 33010KT 270V010 9999 BKN026 BKN033 BKN042 18/12 Q1020

Heure: 23:57 (22:57 UTC)

Prévision

Le bulletin a été fait il y a 5 heures et 51 minutes, à 17:06 UTC
Prévision valable du 20 à 18 UTC au 20 à 21 UTC
Vent 16 kt de ouest
Visibilité 10 km ou plus
Nuages épars à une hauteur de 2500 ft
Evoluant progressivement
du 20 à 18 UTC au 20 à 21 UTC
Vent 10 kt de nord-ouest

TAF: EGLC 201706Z 2018/2021 26016KT 9999 SCT025 BECMG 2018/2021 32010KT

Observations et prévisions météorologiques de plus de 4000 aéroports (messages METAR et TAF).

Les stations disponibles sont représentées par des disques jaunes et rouges sur la carte.

Passer la souris dessus pour voir le nom de la station.

Cliquer dessus pour voir les observations et prévisions météorologiques.

Pour changer de carte: cliquez sur les boutons verts avec une croix noire pour zoomer, sur le bouton vert avec un tiret pour effectuer un zoom arrière, ou sur les flèches vertes pour les cartes adjacentes.


METAR-TAF: